www.pogodaiklimat.ru

Погода и климат >> Архив погоды >> Таджикистан >> Ганжина


ПОГОДА в Ганжине

  • Прогноз погоды в Ганжине
  • Монитор погоды в Ганжине

АРХИВ ПОГОДЫ в Ганжине

Время (UTC), дата Ветер
(напр.,м/с)
 
Видим.   Явления Облачность Т
(С)
Тd
(С)
f
(%)
Тe
(С)
Тes
(С)
Комфортность P
(гПа)
Po
(гПа)
Тmin
(С)
Tmax
(С)
R
(мм)
R24
(мм)
S
(см)
18 16.08 ЮВ 1 н/о ясно +20.9 +5.9 38 +23 +23 комфорт 1008.7 924.3
21 16.08 СЗ 1 н/о ясно +17.5 +4.1 41 +19 +19 1010.8 925.3
00 17.08 СЗ 1 н/о ясно +15.6 +4.0 46 +16 +16 1012.0 925.8
03 17.08 штиль 0 50 км ясно +22.4 +5.5 33 +23 +29 комфорт 1010.3 926.2 +15.5
06 17.08 ЮВ 2 50 км ясно +27.2 +4.3 23 +26 +42 жарко 1008.1 925.4
09 17.08 ЮВ 2 50 км ясно +28.6 +2.3 18 +26 +42 жарко 1006.3 924.1
12 17.08 ЮВ 2 50 км ясно +29.6 +3.4 19 +28 +31 жарко 1004.6 922.8
15 17.08 В 1 50 км ясно +25.6 +7.0 31 +26 +26 жарко 1005.5 922.6 +30.5
18 17.08 В 1 н/о ясно +21.2 +6.1 37 +22 +22 комфорт 1007.9 923.6
21 17.08 В 1 н/о ясно +17.9 +4.0 40 +19 +19 1008.5 923.3
00 18.08 В 1 н/о ясно +15.9 +2.9 42 +17 +17 1010.0 924.1
03 18.08 штиль 0 50 км ясно +19.4 +4.5 37 +20 +25 1010.9 925.9 +15.8
06 18.08 ЮВ 2 50 км ясно +27.0 +2.5 21 +25 +41 комфорт 1007.7 925.0
09 18.08 ЮВ 2 50 км ясно +28.8 +1.1 17 +27 +42 жарко 1005.8 923.7
12 18.08 В 1 50 км ясно +29.8 +3.2 18 +28 +32 жарко 1004.7 923.0
15 18.08 ЮВ 1 50 км ясно +25.5 +5.9 28 +25 +25 комфорт 1005.2 922.3 +31.0
18 18.08 ЮВ 1 н/о ясно +21.4 +5.3 35 +22 +22 комфорт 1004.5 920.6
21 18.08 ЮВ 1 н/о ясно +17.5 +4.0 41 +19 +19 1008.4 923.1
00 19.08 В 1 н/о ясно +15.3 +2.7 43 +16 +16 1009.8 923.7
03 19.08 штиль 0 50 км ясно +19.1 +4.6 38 +19 +25 1009.2 924.2 +15.2
06 19.08 В 1 50 км ясно +27.6 +2.9 20 +26 +44 жарко 1005.8 923.4
09 19.08 ЮВ 2 50 км ясно +29.0 +0.9 16 +27 +42 жарко 1004.1 922.2
12 19.08 ЮВ 1 50 км ясно +29.9 +0.9 15 +27 +31 жарко 1002.5 921.0
15 19.08 В 1 50 км ясно +26.8 +7.0 28 +26 +26 жарко 1004.3 921.8 +31.0
18 19.08 В 1 н/о ясно +21.7 +4.5 32 +22 +22 комфорт 1008.9 924.7
21 19.08 В 1 н/о ясно +18.5 +4.0 38 +20 +20 1011.1 925.8
00 20.08 В 1 н/о ясно +17.1 +3.8 41 +18 +18 1013.1 927.3
03 20.08 штиль 0 50 км ясно +23.2 +5.6 32 +24 +29 комфорт 1011.7 927.7 +17.0
06 20.08 В 1 50 км ясно +29.6 +3.0 18 +27 +46 жарко 1010.4 928.2
09 20.08 В 2 50 км ясно +31.7 +4.6 18 +29 +45 жарко 1008.4 926.9
12 20.08 В 2 50 км ясно +31.8 +3.0 16 +29 +33 жарко 1006.7 925.3
15 20.08 В 1 50 км ясно +28.2 +6.8 26 +27 +27 жарко 1007.7 925.3 +33.0
18 20.08 В 1 н/о ясно +22.1 +3.8 30 +22 +22 комфорт 1010.4 926.2
21 20.08 В 1 н/о ясно +18.9 +3.4 36 +20 +20 1010.8 925.7
00 21.08 В 1 н/о ясно +17.9 +4.0 40 +19 +19 1011.4 925.9
03 21.08 штиль 0 50 км ясно +24.5 +6.1 31 +24 +30 комфорт 1009.6 926.1 +17.8
06 21.08 Ю 2 50 км ясно +30.7 +5.3 20 +29 +44 жарко 1008.0 926.2
09 21.08 ЮВ 2 50 км ясно +32.6 +4.1 17 +30 +45 жарко 1005.7 924.6
12 21.08 Ю 2 50 км ясно +33.0 +2.7 15 +30 +34 жарко 1004.5 923.6
15 21.08 ЮВ 1 50 км ясно +29.1 +7.0 25 +28 +28 жарко 1006.3 924.3 +34.5
18 21.08 ЮВ 1 н/о ясно +22.5 +3.8 29 +22 +22 комфорт 1009.6 925.5
21 21.08 В 1 н/о ясно +19.5 +2.9 33 +21 +21 комфорт 1011.3 926.3
00 22.08 СВ 1 н/о ясно +18.3 +3.2 37 +20 +20 1011.2 925.9
03 22.08 штиль 0 50 км ясно +24.7 +5.1 28 +24 +30 комфорт 1009.7 926.2 +18.2
06 22.08 В 1 50 км ясно +30.4 +5.6 21 +29 +47 жарко 1008.5 926.6
09 22.08 ЮВ 2 50 км ясно +32.7 +4.3 17 +30 +45 жарко 1006.3 925.2
12 22.08 ЮВ 2 50 км ясно +32.9 +3.6 16 +30 +34 жарко 1004.8 923.9
15 22.08 ЮВ 1 50 км ясно +28.7 +8.0 27 +28 +28 жарко 1006.8 924.6 +34.5
18 22.08 В 1 н/о ясно +21.9 +4.6 32 +22 +22 комфорт 1010.0 925.7
21 22.08 В 1 н/о ясно +18.8 +3.2 35 +20 +20 1011.8 926.5
00 23.08 В 1 н/о ясно +17.5 +3.6 40 +19 +19 1012.8 927.1
03 23.08 штиль 0 50 км ясно +23.3 +5.1 31 +23 +29 комфорт 1011.8 927.8 +17.4
06 23.08 ЮВ 1 50 км ясно +31.6 +5.1 19 +30 +48 жарко 1008.5 926.9
09 23.08 Ю 2 50 км ясно +32.9 +4.3 17 +30 +45 жарко 1006.8 925.7
12 23.08 ЮВ 2 50 км ясно +33.1 +3.8 16 +30 +34 жарко 1005.0 924.1
15 23.08 ЮВ 1 50 км ясно +30.0 +5.1 21 +28 +28 жарко 1005.4 923.7 +35.0

 

Местоположение метеостанции Ганжина (Таджикистан): широта 37.95 долгота 68.57 высота над уровнем моря 752 м.

В архиве по умолчанию представлена погода в Ганжине за последнюю неделю. Архивные данные за месяц целиком и за предыдущие месяцы, начиная с января 2011 года, Вы можете получить, выбрав интересующий диапазон дат из раскрывающегося списка и нажав кнопку "Ввод!".


*Определитесь, кто Вы:
робот инопланетянин человек

Внимание! Время в таблицах - всемирное. Для получения местного времени необходимо прибавить поправку, которая равна 5 ч.

Смотрите также архив погоды в соседних городах и на ближайших метеорологических станциях:

Погода в Исанбай (Таджикистан) (7 км)
Погода в Курган-Тюбе (Таджикистан) (23 км)
Погода в Шурчи (Сухрандарьинская область, Узбекистан) (68 км)
Погода в Дангаре (Таджикистан) (68 км)
Погода в Денау (Сухрандарьинская область, Узбекистан) (69 км)
Погода в Душанбе (Таджикистан) (69 км)
Погода в Пархаре (Таджикистан) (88 км)
Погода в Пьяндже (Таджикистан) (92 км)
Погода в Санглоке (Таджикистан) (94 км)
Погода в Кулябе (Таджикистан) (106 км)

Пояснения к столбцам:

Ветер - указаны скорость ветра в м/с - средняя за 10 мин, порывы в срок и между сроками (в фигурных скобках) и направление, откуда дует ветер: С - северный, СВ - северо-восточный, В - восточный, ЮВ - юго-восточный, Ю - южный, ЮЗ - юго-западный, З - западный, СЗ - северо-западный.
Видимость - горизонтальная дальность видимости в метрах или километрах. При видимости от 1 до 10 км при отсутствии осадков обычно наблюдается дымка, при ухудшении видимости до 1 км и менее - туман. В сухую погоду видимость может ухудшаться дымом, пылью или мглою.
Явления - указаны атмосферные явления, наблюдавшиеся в срок или в последний час перед сроком; фигурными скобками обозначены явления, наблюдавшиеся между сроками (за 1-3 часа до срока); квадратными скобками обозначены град или гололедные отложения с указанием их диаметра в мм.
Облачность - указаны через наклонную черту общая и нижняя облачность в баллах и высота нижней границы облаков в метрах; квадратными скобками обозначены формы облаков: Ci - перистые, Cs - перисто-слоистые, Cc - перисто-кучевые, Ac - высококучевые, As - высокослоистые, Sc - слоисто-кучевые, Ns - слоисто-дождевые, Cu - кучевые, Cb - кучево-дождевые. Подробнее классификацию облаков см. в Атласе облаков (PDF).
T - Температура воздуха - температура, измеренная на высоте 2 м над землей.
Td - Температура точки росы - температура, при понижении до которой содержащийся в воздухе водяной пар достигнет насыщения.
f - Относительная влажность воздуха - влажноcть воздуха, измеренная на высоте 2 м над землей.
Te - Эффективная температура - температура, которую ощущает одетый по сезону человек в тени. Характеристика душности погоды. При расчете учитывается влияние влажности воздуха и скорости ветра на теплоощущения человека.
Tes - Эффективная температура на солнце - температура, которую ощущает человек, с поправкой на солнечный нагрев. Характеристика знойности погоды. Зависит от высоты солнца над горизонтом, облачности и скорости ветра. Ночью, в пасмурную погоду, а также при ветре 12 м/с и более поправка равна нулю.
P - Атмосферное давление - приведенное к уровню моря атмосферное давление.
Po - Атмосферное давление - измеренное на уровне метеостанции атмосферное давление.
Tmin - Минимальная температура - минимум температуры воздуха на высоте 2 м над землей.
Tmax - Максимальная температура - максимум температуры воздуха на высоте 2 м над землей.
R - Количество осадков - Количество выпавших осадков за период времени, мм. При наведении курсора мыши на число - период времени, за который выпало указанное количество осадков.
R24 - Количество осадков - Количество выпавших осадков за 24 часа, мм.
S - Снежный покров - Высота снежного покрова, см. При наведении курсора мыши на число - состояние снежного покрова и степень покрытия местности в баллах.